{"data":{"norad_id":48472,"epoch":"2026-09-20T01:22:22.715904Z","epoch_age_seconds":75498,"freshness":"FRESH","line1":"1 48472U 21040AW  26263.05720736  .00008639  00000+0  46121-3 0  9993","line2":"2 48472  53.0612  31.2167 0000895  51.1055 309.0018 15.15891033295893","mean_motion":15.15891033,"eccentricity":8.95e-5,"inclination_deg":53.0612,"raan_deg":31.2167,"arg_perigee_deg":51.1055,"mean_anomaly_deg":309.0018,"bstar":0.00046121,"rev_number":29589,"period_min":94.993635337376,"perigee_km":517.65755635572,"apogee_km":518.89201406527,"semimajor_km":6896.4117852105,"source":"CELESTRAK","updated_at":"2026-09-20T09:00:39.129799Z"}}